STARLINK-11240 [DTC] (60929 NORAD) Tracking and Keplerian Element Data

This shows tracking and keplerian element data for the satellite.

Feedback or suggestion? Click here.




ElementValue
Catalog60929
NameSTARLINK-11240 [DTC]
Epoch Orbit602
Epoch Day286.91668981
Epoch Year2024
RAAN349.0117
Inclination53.1592
Eccentricity0.0001168
Argument of Perigee76.1942
Mean Anonmoly8.5854
Mean Motion15.69721636
Decay Rate-0.00024194
L11 60929U 24155F 24286.91668981 -.00024194 00000+0 -19532-3 0 9997
L22 60929 53.1592 349.0117 0001168 76.1942 8.5854 15.69721636 6027



Live tracking and technical data element details for STARLINK-11240 [DTC] (NORAD 60929). STARLINK-11240 [DTC] can be tracked NOW for your location showing map with azimuth and elevation plus other details from your city location.







IsCatalogInMostPopularTable: catalog: 60929, numindb: 10
Update: records affected: 1



GetName: 60929 STARLINK-11240 [DTC]

Hit Count: updated at: Fri, 06 Dec 2024 11:15:05 GMT